TimeEDT,TemperatureF,Dew PointF,Humidity,Sea Level PressureIn,VisibilityMPH,Wind Direction,Wind SpeedMPH,Gust SpeedMPH,PrecipitationIn,Events,Conditions,WindDirDegrees,DateUTC
12:53 AM,42.1,39.0,89,30.36,10.0,Calm,Calm,-,N/A,,Clear,0,2013-09-18 04:53:00
1:53 AM,41.0,39.0,93,30.35,10.0,Calm,Calm,-,N/A,,Clear,0,2013-09-18 05:53:00
2:53 AM,39.9,37.0,89,30.35,10.0,Calm,Calm,-,N/A,,Clear,0,2013-09-18 06:53:00
3:53 AM,39.0,37.0,93,30.34,10.0,Calm,Calm,-,N/A,,Clear,0,2013-09-18 07:53:00
4:53 AM,39.0,36.0,89,30.33,8.0,Calm,Calm,-,N/A,,Clear,0,2013-09-18 08:53:00
5:53 AM,39.0,36.0,89,30.34,10.0,Calm,Calm,-,N/A,,Clear,0,2013-09-18 09:53:00
6:53 AM,39.0,37.0,93,30.35,10.0,Calm,Calm,-,N/A,,Clear,0,2013-09-18 10:53:00
7:53 AM,44.1,42.1,93,30.35,10.0,Calm,Calm,-,N/A,,Clear,0,2013-09-18 11:53:00
8:53 AM,52.0,46.0,80,30.34,10.0,Calm,Calm,-,N/A,,Clear,0,2013-09-18 12:53:00
9:53 AM,57.9,46.0,65,30.32,10.0,Calm,Calm,-,N/A,,Clear,0,2013-09-18 13:53:00
10:53 AM,64.0,44.1,48,30.31,10.0,Calm,Calm,-,N/A,,Clear,0,2013-09-18 14:53:00
11:53 AM,66.0,39.0,37,30.29,10.0,Variable,4.6,-,N/A,,Clear,0,2013-09-18 15:53:00
12:53 PM,68.0,42.1,39,30.27,10.0,SSW,3.5,-,N/A,,Clear,200,2013-09-18 16:53:00
1:53 PM,70.0,39.0,32,30.24,10.0,NW,5.8,-,N/A,,Clear,310,2013-09-18 17:53:00
2:53 PM,71.1,42.1,35,30.22,10.0,Calm,Calm,-,N/A,,Clear,0,2013-09-18 18:53:00
3:53 PM,71.1,46.0,41,30.20,10.0,SSW,5.8,-,N/A,,Clear,200,2013-09-18 19:53:00
4:53 PM,70.0,48.0,46,30.19,10.0,South,9.2,-,N/A,,Clear,180,2013-09-18 20:53:00
5:53 PM,66.9,48.0,51,30.19,10.0,South,8.1,-,N/A,,Clear,190,2013-09-18 21:53:00
6:53 PM,57.9,48.9,72,30.19,10.0,SSW,3.5,-,N/A,,Clear,200,2013-09-18 22:53:00
7:53 PM,55.0,48.0,77,30.19,10.0,Calm,Calm,-,N/A,,Clear,0,2013-09-18 23:53:00
8:53 PM,51.1,46.9,86,30.19,10.0,Calm,Calm,-,N/A,,Clear,0,2013-09-19 00:53:00
9:53 PM,48.9,46.0,90,30.20,10.0,Calm,Calm,-,N/A,,Clear,0,2013-09-19 01:53:00
10:53 PM,48.0,45.0,89,30.20,10.0,Calm,Calm,-,N/A,,Clear,0,2013-09-19 02:53:00
11:53 PM,46.9,44.1,90,30.19,10.0,Calm,Calm,-,N/A,,Clear,0,2013-09-19 03:53:00